St. Thomas, VI

12:24 PM AST on October 20, 2017 (GMT -0400)
King

Weather History for TIST - July, 2014

Change the Weather History Date:

Tuesday, July 8, 2014

  Actual Average Record
Temperature  
Mean Temperature 85 °F 84 °F  
Max Temperature 91 °F 90 °F 95 °F (1995)
Min Temperature 79 °F 78 °F 74 °F (1977)
Degree Days  
Heating Degree Days 0 0  
Month to date heating degree days 0 0  
Since 1 June heating degree days 0 0  
Since 1 July heating degree days 0 0  
Cooling Degree Days 20 19  
Month to date cooling degree days 157 152  
Year to date cooling degree days 2955 2959  
Since 1 June cooling degree days 732 707  
Growing Degree Days 35 (Base 50)    
Moisture  
Dew Point 73 °F    
Average Humidity 69    
Maximum Humidity 85    
Minimum Humidity 52    
Precipitation  
Precipitation T in 0.09 in 0.59 in (1999)
Month to date precipitation 0.19 0.73  
Year to date precipitation 13.57 14.29  
Sea Level Pressure  
Sea Level Pressure 30.12 in    
Wind  
Wind Speed 10 mph (East)    
Max Wind Speed 18 mph    
Max Gust Speed 24 mph    
Visibility 10 miles    
Events      
T = Trace of Precipitation, MM = Missing Value Source: NWS Daily Summary

Daily Weather History Graph

Daily Weather History Graph

Search for Another Location

Airport or City:

Trip Planner

Search our weather history database for the weather conditions in past years. The results will help you decide how hot, cold, wet, or windy it might be!

Date:

Astronomy

Jul. 08, 2014 Rise Set
Actual Time 5:49 AM AST 7:00 PM AST
Civil Twilight 5:25 AM AST 7:24 PM AST
Nautical Twilight 4:57 AM AST 7:52 PM AST
Astronomical Twilight 4:27 AM AST 8:22 PM AST
Moon 3:16 PM AST (7/8) 2:02 AM AST (7/8)
Length of Visible Light 13h 58m
Length of Day
13h 10m
Waxing Gibbous, 81% of the Moon is Illuminated
Jul 8
Waxing Gibbous
Jul 12
Full
Jul 18
Last Quarter
Jul 26
New
Aug 3
First Quarter

Hourly Weather History & Observations

Time (AST) Temp. Heat Index Dew Point Humidity Pressure Visibility Wind Dir Wind Speed Gust Speed Precip Events Conditions
12:53 AM 81.0 °F 86.7 °F 75.0 °F 82% 30.13 in 10.0 mi East 3.5 mph - 0.00 in   Overcast
1:53 AM 81.0 °F 86.2 °F 73.9 °F 79% 30.12 in 10.0 mi East 8.1 mph - N/A   Overcast
2:53 AM 81.0 °F 86.2 °F 73.9 °F 79% 30.12 in 10.0 mi East 8.1 mph - N/A   Overcast
3:53 AM 80.1 °F 84.5 °F 73.9 °F 81% 30.12 in 10.0 mi Calm Calm - N/A   Overcast
4:53 AM 80.1 °F 84.5 °F 73.9 °F 81% 30.12 in 10.0 mi East 6.9 mph - N/A   Overcast
5:53 AM 80.1 °F 84.5 °F 73.9 °F 81% 30.13 in 10.0 mi East 5.8 mph - N/A   Overcast
6:53 AM 81.0 °F 86.2 °F 73.9 °F 79% 30.13 in 10.0 mi ENE 5.8 mph - N/A   Overcast
7:53 AM 84.0 °F 91.2 °F 73.9 °F 72% 30.15 in 10.0 mi East 13.8 mph - N/A   Overcast
8:53 AM 87.1 °F 94.5 °F 73.0 °F 63% 30.15 in 10.0 mi East 11.5 mph 19.6 mph N/A   Overcast
9:04 AM 87.8 °F 95.6 °F 73.4 °F 62% 30.15 in 10.0 mi East 10.4 mph - N/A   Scattered Clouds
9:53 AM 87.1 °F 94.5 °F 73.0 °F 63% 30.15 in 10.0 mi East 13.8 mph - N/A   Scattered Clouds
10:00 AM 87.8 °F 93.8 °F 71.6 °F 58% 30.15 in 10.0 mi East 11.5 mph 19.6 mph N/A   Overcast
10:42 AM 89.6 °F 96.2 °F 71.6 °F 55% 30.14 in 10.0 mi East 13.8 mph 20.7 mph N/A   Scattered Clouds
11:00 AM 89.6 °F 96.2 °F 71.6 °F 55% 30.14 in 10.0 mi East 12.7 mph - N/A   Overcast
11:53 AM 91.0 °F 97.6 °F 71.1 °F 52% 30.14 in 10.0 mi ENE 13.8 mph 21.9 mph N/A   Overcast
12:31 PM 89.6 °F 96.2 °F 71.6 °F 55% 30.13 in 10.0 mi ENE 12.7 mph 24.2 mph N/A   Scattered Clouds
12:53 PM 91.0 °F 97.6 °F 71.1 °F 52% 30.13 in 10.0 mi ENE 13.8 mph 20.7 mph N/A   Mostly Cloudy
1:35 PM 87.8 °F 95.6 °F 73.4 °F 62% 30.11 in 10.0 mi ESE 10.4 mph 21.9 mph N/A   Overcast
1:53 PM 89.1 °F 98.0 °F 73.9 °F 61% 30.12 in 10.0 mi East 15.0 mph 23.0 mph N/A   Overcast
2:53 PM 87.1 °F 94.5 °F 73.0 °F 63% 30.09 in 10.0 mi East 12.7 mph - N/A   Overcast
3:10 PM 87.8 °F 93.8 °F 71.6 °F 58% 30.08 in 10.0 mi East 17.3 mph 23.0 mph N/A   Overcast
3:22 PM 89.6 °F 98.2 °F 73.4 °F 59% 30.08 in 10.0 mi East 12.7 mph 21.9 mph N/A   Overcast
3:43 PM 89.6 °F 98.2 °F 73.4 °F 59% 30.08 in 10.0 mi ENE 15.0 mph 24.2 mph N/A   Overcast
3:53 PM 89.1 °F 96.0 °F 72.0 °F 57% 30.08 in 10.0 mi ENE 16.1 mph 20.7 mph N/A   Overcast
4:48 PM 87.8 °F 95.6 °F 73.4 °F 62% 30.08 in 10.0 mi East 13.8 mph 23.0 mph N/A   Overcast
4:53 PM 87.1 °F 95.4 °F 73.9 °F 65% 30.09 in 10.0 mi ENE 11.5 mph 23.0 mph N/A   Overcast
5:53 PM 84.9 °F 92.1 °F 73.9 °F 69% 30.09 in 10.0 mi East 13.8 mph - N/A   Overcast
6:53 PM 82.9 °F 89.4 °F 73.9 °F 74% 30.10 in 10.0 mi ENE 11.5 mph - N/A   Overcast
7:19 PM 82.4 °F 88.2 °F 73.4 °F 74% 30.10 in 10.0 mi East 11.5 mph - N/A   Overcast
7:53 PM 82.0 °F 87.9 °F 73.9 °F 76% 30.11 in 10.0 mi East 11.5 mph - N/A   Overcast
8:39 PM 82.4 °F 88.2 °F 73.4 °F 74% 30.12 in 10.0 mi East 11.5 mph 19.6 mph N/A   Scattered Clouds
8:53 PM 82.0 °F 88.6 °F 75.0 °F 79% 30.12 in 10.0 mi East 8.1 mph - N/A   Scattered Clouds
9:00 PM 82.4 °F 89.5 °F 75.2 °F 79% 30.12 in 10.0 mi East 15.0 mph 20.7 mph N/A   Overcast
9:53 PM 82.0 °F 87.9 °F 73.9 °F 76% 30.13 in 10.0 mi East 11.5 mph 19.6 mph N/A   Overcast
10:53 PM 82.0 °F 87.4 °F 73.0 °F 74% 30.12 in 10.0 mi East 10.4 mph - N/A   Overcast
11:20 PM 82.4 °F 88.2 °F 73.4 °F 74% 30.12 in 10.0 mi East 10.4 mph 17.3 mph N/A   Overcast
11:53 PM 82.0 °F 87.9 °F 73.9 °F 76% 30.12 in 10.0 mi East 10.4 mph - N/A   Overcast